Tracking 28790 objects as of 19-Apr-2024
HD Live streaming from Space Station
objects crossing your sky now

ONEWEB-0517

Track ONEWEB-0517 now!
10-day predictions
ONEWEB-0517 is classified as:


NORAD ID: 54135
Int'l Code: 2022-138Y
Perigee: 1,191.4 km
Apogee: 1,194.4 km
Inclination: 87.9 °
Period: 109.1 minutes
Semi major axis: 7563 km
RCS: Unknown
Launch date: October 22, 2022
Source: United Kingdom (UK)
Launch site: SRIHARIKOTA (SRI)
Your satellite tracking list
Your tracking list is empty




NASA's NSSDC Master Catalog

Two Line Element Set (TLE):
1 54135U 22138Y   24109.94968553  .00000106  00000-0  23163-3 0  9994
2 54135  87.9095 102.0502 0001991  73.5531 286.5820 13.19723808 72734
Source of the keplerian elements: AFSPC